Location: Newark
(49.3422°N, 3.6364°E)
Time: 00:43:26
(UTC+00:00)

Envisat - Visible Passes

Search period start: 24 October 2019 00:00
Search period end: 03 November 2019 00:00
Orbit: 764 x 766 km, 98.1° (Epoch: 23 October)

Date Brightness Start Highest point End Pass type
(mag) Time Alt. Az. Time Alt. Az. Time Alt. Az.
24 Oct 6.1 05:27:00 10° NE 05:30:11 16° E 05:33:20 10° SE visible
24 Oct 4.5 18:23:54 10° SSW 18:28:38 39° W 18:33:25 10° NNW visible
25 Oct 3.1 17:46:39 10° S 17:51:44 79° WSW 17:56:51 10° NNW visible
25 Oct 6.2 19:29:46 10° WSW 19:31:37 12° W 19:33:27 10° WNW visible
26 Oct 5.6 05:51:42 10° NE 05:55:59 27° E 06:00:14 10° SSE visible
26 Oct 3.1 17:10:07 10° SE 17:15:02 52° ENE 17:19:59 10° N visible
26 Oct 5.3 18:50:16 10° SW 18:54:21 24° W 18:58:29 10° NW visible
27 Oct 6.3 05:16:22 10° ENE 05:18:45 13° E 05:21:08 10° ESE visible
27 Oct 4.0 18:12:25 10° S 18:17:19 48° W 18:22:15 10° NNW visible
28 Oct 3.0 17:35:23 10° SSE 17:40:28 85° ENE 17:45:35 10° NNW visible
28 Oct 6.0 19:17:21 10° WSW 19:20:11 15° W 19:23:01 10° NW visible
29 Oct 5.9 05:40:41 10° NE 05:44:36 22° E 05:48:29 10° SE visible
29 Oct 3.3 16:59:03 10° SE 17:03:49 43° ENE 17:08:37 10° N visible
29 Oct 5.0 18:38:34 10° SSW 18:42:59 30° W 18:47:26 10° NNW visible
30 Oct 6.7 05:06:28 10° ENE 05:07:19 10° E 05:08:09 10° E visible
30 Oct 3.6 18:01:00 10° S 18:06:00 60° W 18:11:03 10° NNW visible
31 Oct 2.9 17:24:10 10° SSE 17:29:13 70° ENE 17:34:18 10° N visible
31 Oct 5.7 19:05:17 10° SW 19:08:45 18° W 19:12:15 10° NW visible
01 Nov 6.0 05:29:47 10° NE 05:33:12 18° E 05:36:36 10° SE visible
01 Nov 4.6 18:26:58 10° SSW 18:31:38 36° W 18:36:20 10° NNW visible
02 Nov 3.2 17:49:38 10° S 17:54:43 73° WSW 17:59:49 10° NNW visible
02 Nov 6.2 19:33:27 10° W 19:34:39 11° W 19:35:50 10° WNW visible
